Mitchell, SD

5:47 PM CDT on August 23, 2019 (GMT -0500)
Mitchell Municipal

Weather History for KMHE - May, 2019

Change the Weather History Date:

Thursday, May 23, 2019

  Actual Average Record
Temperature  
Mean Temperature 54 °F 62 °F  
Max Temperature 59 °F 73 °F 100 °F (1926)
Min Temperature 48 °F 50 °F 33 °F (1947)
Degree Days  
Heating Degree Days 11 5  
Month to date heating degree days 273 178  
Since 1 July heating degree days 7961 7178  
Cooling Degree Days 0 1  
Month to date cooling degree days 7 20  
Year to date cooling degree days 7 22  
Growing Degree Days 4 (Base 50)    
Moisture  
Dew Point 46 °F    
Average Humidity 74    
Maximum Humidity 86    
Minimum Humidity 62    
Precipitation  
Precipitation 0.02 in 0.09 in 1.40 in (1914)
Month to date precipitation 3.53 1.82  
Year to date precipitation 11.11 5.62  
Snow  
Snow 0.00 in - 0.00 in ()
Month to date snowfall 0.0  
Since 1 July snowfall 67.6  
Snow Depth 0.00 in    
Sea Level Pressure  
Sea Level Pressure 30.06 in    
Wind  
Wind Speed 7 mph (NW)    
Max Wind Speed 14 mph    
Max Gust Speed 18 mph    
Visibility 10 miles    
Events Rain    
T = Trace of Precipitation, MM = Missing Value Source: NWS Daily Summary

Daily Weather History Graph

Daily Weather History Graph

Search for Another Location

Airport or City:

Astronomy

May. 23, 2019 Rise Set
Actual Time 5:59 AM CDT 8:59 PM CDT
Civil Twilight 5:25 AM CDT 9:33 PM CDT
Nautical Twilight 4:41 AM CDT 10:17 PM CDT
Astronomical Twilight 3:50 AM CDT 11:09 PM CDT
Moon 12:44 AM CDT 10:03 AM CDT
Length of Visible Light 16h 08m
Length of Day
14h 59m
Waning Gibbous, 77% of the Moon is Illuminated
May 23
Waning Gibbous
May 26
Last Quarter
Jun 3
New
Jun 10
First Quarter
Jun 17
Full

Hourly Weather History & Observations

Time (CDT) Temp. Dew Point Humidity Pressure Visibility Wind Dir Wind Speed Gust Speed Precip Events Conditions
12:53 AM 48.9 °F 45.0 °F 86% 29.91 in 10.0 mi West 9.2 mph - N/A   Clear
1:53 AM 48.0 °F 44.1 °F 86% 29.93 in 10.0 mi West 10.4 mph - N/A   Clear
2:53 AM 48.0 °F 44.1 °F 86% 29.95 in 10.0 mi West 9.2 mph - N/A   Overcast
3:53 AM 48.0 °F 44.1 °F 86% 30.00 in 10.0 mi West 9.2 mph - N/A   Overcast
4:53 AM 48.0 °F 44.1 °F 86% 30.01 in 10.0 mi West 9.2 mph - N/A   Overcast
5:53 AM 48.0 °F 44.1 °F 86% 30.04 in 10.0 mi West 10.4 mph - N/A   Overcast
6:53 AM 48.9 °F 45.0 °F 86% 30.07 in 10.0 mi West 8.1 mph - N/A   Overcast
7:11 AM 48.9 °F 45.0 °F 86% 30.07 in 10.0 mi West 6.9 mph - N/A   Overcast
7:53 AM 48.9 °F 45.0 °F 86% 30.09 in 10.0 mi West 9.2 mph - N/A   Overcast
8:53 AM 52.0 °F 46.0 °F 80% 30.10 in 10.0 mi West 10.4 mph - N/A   Overcast
9:53 AM 55.9 °F 46.9 °F 72% 30.10 in 10.0 mi NW 11.5 mph - N/A   Mostly Cloudy
10:46 AM 55.0 °F 46.0 °F 72% 30.09 in 10.0 mi NNW 13.8 mph - N/A   Overcast
10:53 AM 55.0 °F 46.0 °F 72% 30.10 in 10.0 mi NNW 11.5 mph - N/A   Overcast
11:53 AM 55.9 °F 45.0 °F 67% 30.11 in 10.0 mi NW 8.1 mph - N/A   Overcast
12:53 PM 57.0 °F 44.1 °F 62% 30.14 in 10.0 mi North 8.1 mph - N/A   Overcast
1:53 PM 57.9 °F 44.1 °F 60% 30.14 in 10.0 mi Calm Calm - N/A   Overcast
2:53 PM 59.0 °F 46.0 °F 62% 30.13 in 10.0 mi North 4.6 mph - N/A   Overcast
3:53 PM 57.9 °F 45.0 °F 62% 30.17 in 10.0 mi Calm Calm - N/A   Overcast
4:53 PM 59.0 °F 46.0 °F 62% 30.14 in 10.0 mi Calm Calm - N/A   Overcast
5:53 PM 57.9 °F 46.0 °F 65% 30.09 in 10.0 mi ENE 4.6 mph - N/A   Clear
6:53 PM 57.9 °F 46.9 °F 67% 30.05 in 10.0 mi ENE 8.1 mph - N/A   Clear
7:53 PM 55.9 °F 48.0 °F 75% 30.06 in 10.0 mi ENE 5.8 mph - N/A   Mostly Cloudy
8:53 PM 55.0 °F 48.0 °F 77% 30.00 in 10.0 mi East 6.9 mph - 0.00 in Rain Light Rain
9:53 PM 55.0 °F 48.0 °F 77% 30.05 in 10.0 mi Calm Calm - 0.00 in   Overcast
10:53 PM 54.0 °F 48.9 °F 83% 30.05 in 9.0 mi Calm Calm - 0.02 in Rain Light Rain
11:53 PM 53.1 °F 50.0 °F 89% 30.00 in 10.0 mi East 5.8 mph - 0.00 in   Overcast